EDT,Max TemperatureF,Mean TemperatureF,Min TemperatureF,Max Dew PointF,MeanDew PointF,Min DewpointF,Max Humidity, Mean Humidity, Min Humidity, Max Sea Level PressureIn, Mean Sea Level PressureIn, Min Sea Level PressureIn, Max VisibilityMiles, Mean VisibilityMiles, Min VisibilityMiles, Max Wind SpeedMPH, Mean Wind SpeedMPH, Max Gust SpeedMPH,PrecipitationIn, CloudCover, Events, WindDirDegrees
2013-8-1,82,72,63,63,61,59,90,69,48,30.06,29.97,29.90,10,10,9,15,3,20,0.02,4,Rain,184
2013-8-2,84,73,64,65,61,53,94,75,39,29.90,29.84,29.80,10,8,2,20,4,36,1.12,6,Rain-Thunderstorm,239
2013-8-3,80,72,64,62,59,56,90,69,45,29.88,29.83,29.78,10,10,10,14,5,22,0.00,1,,233
2013-8-4,79,69,60,59,55,51,81,63,43,29.90,29.84,29.79,10,10,10,10,4,,0.01,1,Thunderstorm,296
2013-8-5,75,66,57,51,44,35,75,49,24,30.07,29.97,29.90,10,10,10,17,7,25,0.00,0,,292
2013-8-6,78,65,52,55,49,42,83,57,31,30.17,30.13,30.07,10,10,10,7,2,,0.00,0,,116
2013-8-7,80,68,57,57,54,49,84,61,36,30.21,30.17,30.13,10,10,10,9,2,18,0.00,0,,155
2013-8-8,82,73,64,68,63,51,84,73,55,30.14,30.07,30.02,10,10,5,12,4,20,0.04,6,Rain,206
2013-8-9,75,74,73,72,70,67,94,87,78,30.04,29.90,29.75,10,7,1,10,7,20,1.02,6,Rain,196
2013-8-10,82,73,64,69,58,48,91,60,32,30.03,29.90,29.81,10,10,10,14,7,22,0.00,0,,271
2013-8-11,79,67,55,57,52,49,84,59,35,30.10,30.06,30.01,10,10,10,12,3,17,0.00,1,,246
2013-8-12,81,70,60,59,55,50,83,60,36,30.04,29.99,29.94,10,10,10,13,4,,0.00,0,,226
2013-8-13,75,70,66,66,62,60,87,75,62,29.91,29.81,29.70,10,10,8,6,2,,0.01,4,Rain,171
2013-8-14,75,68,62,62,52,48,87,58,40,29.97,29.77,29.68,10,10,8,16,7,29,0.00,1,,272
2013-8-15,77,66,54,51,49,45,83,55,34,30.09,30.05,29.99,10,10,10,10,5,,0.00,1,,256
2013-8-16,79,70,62,55,52,50,75,52,37,30.21,30.16,30.14,10,10,10,10,6,16,0.00,1,,253
2013-8-17,80,68,57,58,55,52,84,64,44,30.30,30.27,30.22,10,10,10,8,3,,0.00,1,,131
2013-8-18,81,70,60,60,57,55,87,65,45,30.29,30.22,30.10,10,10,8,10,2,,0.00,0,,209
2013-8-19,82,71,61,59,58,57,87,63,44,30.09,30.02,29.96,10,10,10,12,5,,0.00,0,,247
2013-8-20,86,74,63,63,60,58,84,62,41,30.10,30.06,29.99,10,10,10,9,3,,0.00,0,,231
2013-8-21,88,76,64,63,61,59,84,61,40,30.16,30.10,30.03,10,10,7,9,3,,0.00,0,,224
2013-8-22,89,78,66,69,64,61,84,67,39,30.04,29.94,29.83,10,10,7,13,6,21,0.00,0,,212
2013-8-23,81,72,62,68,56,46,84,57,35,30.15,29.97,29.83,10,10,10,12,7,17,0.00,2,,345
2013-8-24,78,65,52,50,45,41,83,52,27,30.35,30.29,30.18,10,10,10,9,2,,0.00,0,,84
2013-8-25,82,68,53,53,50,46,86,54,29,30.38,30.30,30.19,10,10,10,8,2,16,0.00,0,,219
2013-8-26,81,74,66,65,60,53,75,64,54,30.19,30.02,29.88,10,10,10,14,7,18,0.00,5,Rain,221
2013-8-27,84,76,68,66,64,62,84,67,51,29.92,29.88,29.86,10,9,6,10,3,,0.00,2,,82
2013-8-28,84,74,64,65,62,60,88,73,44,30.00,29.92,29.88,10,8,2,13,2,,0.00,1,,75
2013-8-29,68,64,62,63,59,55,90,80,73,30.11,30.06,29.99,10,9,2,18,6,23,0.00,8,,56
2013-8-30,84,72,61,65,60,56,87,70,47,30.04,29.93,29.83,10,10,10,9,4,,0.00,5,,224
2013-8-31,82,75,69,72,68,65,90,81,69,29.85,29.83,29.80,10,6,1,12,5,,0.49,5,Rain-Thunderstorm,209